When you browse on this site, cookies collect data to enhance your experience and personalize the content and advertising you see.
Visit our Privacy Policy to learn more. By continuing to use the site, you agree to this use of cookies and data.
  • In Austria
  • List of Countries
  • For 7 days
  • Water Temperature
  • Satellite Maps
  • Weather Map
  • News
  • Weather Widgets
  • user-avatar
    Login

    Hourly Weather Chinsali

    Today, 14 December, Friday

    Time Temperature Precipitation Wind Pressure Humidity
    00:00 +19°C° 0.3 mm 1 mps 648 mmHg 91%
    01:00 +19°C° 0.3 mm 1 mps 648 mmHg 91%
    02:00 +18°C° 0 mm 1 mps 648 mmHg 92%
    03:00 +18°C° 0.2 mm 1 mps 648 mmHg 92%
    04:00 +18°C° 0.2 mm 1 mps 648 mmHg 92%
    05:00 +18°C° 0.2 mm 1 mps 648 mmHg 92%
    06:00 +19°C° 0.1 mm 1 mps 648 mmHg 88%
    07:00 +21°C° 0.1 mm 1 mps 649 mmHg 85%
    08:00 +22°C° 0 mm 1 mps 650 mmHg 80%
    09:00 +24°C° 1 mm 1 mps 650 mmHg 75%
    10:00 +25°C° 1 mm 1 mps 650 mmHg 70%
    11:00 +27°C° 1 mm 1 mps 650 mmHg 65%
    12:00 +28°C° 0.2 mm 1 mps 649 mmHg 62%
    13:00 +28°C° 0.2 mm 1 mps 649 mmHg 59%
    14:00 +29°C° 0.2 mm 2 mps 648 mmHg 57%
    15:00 +28°C° 1 mm 2 mps 648 mmHg 64%
    16:00 +26°C° 1 mm 1 mps 647 mmHg 71%
    17:00 +25°C° 1 mm 1 mps 647 mmHg 79%
    18:00 +24°C° 1.5 mm 1 mps 647 mmHg 82%
    19:00 +23°C° 1.5 mm 1 mps 647 mmHg 86%
    20:00 +21°C° 1.5 mm 1 mps 647 mmHg 89%
    21:00 +21°C° 0.9 mm 1 mps 647 mmHg 90%
    22:00 +21°C° 0.9 mm 1 mps 647 mmHg 91%
    23:00 +21°C° 0.9 mm 1 mps 647 mmHg 93%

    Tomorrow, 15 December, Saturday

    Time Temperature Precipitation Wind Pressure Humidity
    00:00 +20°C° 0.5 mm 1 mps 647 mmHg 93%
    01:00 +20°C° 0.5 mm 1 mps 647 mmHg 94%
    02:00 +20°C° 0.5 mm 1 mps 647 mmHg 94%
    03:00 +20°C° 0.4 mm 1 mps 647 mmHg 95%
    04:00 +19°C° 0.4 mm 1 mps 647 mmHg 95%
    05:00 +19°C° 0.4 mm 1 mps 647 mmHg 95%
    06:00 +19°C° 0.5 mm 2 mps 647 mmHg 93%
    07:00 +20°C° 0.5 mm 2 mps 648 mmHg 91%
    08:00 +21°C° 0.5 mm 2 mps 648 mmHg 88%
    09:00 +23°C° 0.9 mm 2 mps 649 mmHg 82%
    10:00 +25°C° 0.9 mm 2 mps 649 mmHg 76%
    11:00 +26°C° 0.9 mm 1 mps 649 mmHg 70%
    12:00 +27°C° 1.5 mm 2 mps 648 mmHg 70%
    13:00 +27°C° 1.5 mm 2 mps 648 mmHg 70%
    14:00 +27°C° 1.5 mm 2 mps 647 mmHg 70%
    15:00 +26°C° 1.8 mm 1 mps 647 mmHg 74%
    16:00 +25°C° 1.8 mm 1 mps 646 mmHg 78%
    17:00 +25°C° 1.8 mm 1 mps 646 mmHg 82%
    18:00 +24°C° 2 mm 1 mps 646 mmHg 84%
    19:00 +21°C° 2 mm 0 mps 647 mmHg 85%
    20:00 +19°C° 2 mm 0 mps 647 mmHg 86%
    21:00 +19°C° 1 mm 0 mps 647 mmHg 88%
    22:00 +18°C° 1 mm 0 mps 647 mmHg 89%
    23:00 +18°C° 1 mm 0 mps 647 mmHg 90%

    Day after tomorrow, 16 December, Sunday

    Time Temperature Precipitation Wind Pressure Humidity
    00:00 +18°C° 0.5 mm 0 mps 647 mmHg 92%
    01:00 +17°C° 0.5 mm 0 mps 647 mmHg 93%
    02:00 +17°C° 0.5 mm 0 mps 646 mmHg 94%
    03:00 +17°C° 0.1 mm 0 mps 646 mmHg 94%
    04:00 +17°C° 0.1 mm 0 mps 646 mmHg 95%
    05:00 +16°C° 0.1 mm 0 mps 646 mmHg 95%
    06:00 +18°C° 0 mm 0 mps 647 mmHg 92%
    07:00 +19°C° 0 mm 0 mps 648 mmHg 88%
    08:00 +20°C° 0 mm 0 mps 649 mmHg 85%
    09:00 +22°C° 0.4 mm 0 mps 649 mmHg 80%
    10:00 +23°C° 0.4 mm 0 mps 649 mmHg 75%
    11:00 +24°C° 0.4 mm 0 mps 649 mmHg 70%
    12:00 +25°C° 0.3 mm 0 mps 648 mmHg 66%
    13:00 +26°C° 0.3 mm 0 mps 648 mmHg 63%
    14:00 +27°C° 0.3 mm 0 mps 647 mmHg 60%
    15:00 +26°C° 0.6 mm 0 mps 647 mmHg 66%
    16:00 +26°C° 0.6 mm 1 mps 646 mmHg 72%
    17:00 +25°C° 0.6 mm 1 mps 646 mmHg 78%
    18:00 +24°C° 1.5 mm 1 mps 646 mmHg 82%
    19:00 +23°C° 1.5 mm 1 mps 647 mmHg 85%
    20:00 +21°C° 1.5 mm 1 mps 647 mmHg 89%
    21:00 +21°C° 2.3 mm 1 mps 647 mmHg 89%
    22:00 +21°C° 2.3 mm 1 mps 647 mmHg 90%
    23:00 +21°C° 2.3 mm 1 mps 647 mmHg 91%

    17 December, Monday

    Time Temperature Precipitation Wind Pressure Humidity
    00:00 +20°C° 1.2 mm 1 mps 647 mmHg 91%
    01:00 +20°C° 1.2 mm 1 mps 647 mmHg 91%
    02:00 +20°C° 1.2 mm 1 mps 646 mmHg 92%
    03:00 +20°C° 0.4 mm 1 mps 646 mmHg 92%
    04:00 +20°C° 0.4 mm 1 mps 647 mmHg 92%
    05:00 +19°C° 0.4 mm 1 mps 647 mmHg 93%
    06:00 +20°C° 0.5 mm 1 mps 647 mmHg 91%
    07:00 +21°C° 0.5 mm 1 mps 648 mmHg 90%
    08:00 +22°C° 0.5 mm 1 mps 649 mmHg 88%
    09:00 +22°C° 1 mm 1 mps 648 mmHg 85%
    10:00 +23°C° 1 mm 1 mps 648 mmHg 82%
    11:00 +24°C° 1 mm 1 mps 648 mmHg 80%
    12:00 +24°C° 1.2 mm 1 mps 647 mmHg 80%
    13:00 +24°C° 1.2 mm 1 mps 647 mmHg 79%
    14:00 +24°C° 1.2 mm 1 mps 646 mmHg 79%
    15:00 +24°C° 1.2 mm 1 mps 646 mmHg 82%
    16:00 +24°C° 1.2 mm 1 mps 646 mmHg 85%
    17:00 +23°C° 1.2 mm 1 mps 646 mmHg 88%
    18:00 +22°C° 0.4 mm 1 mps 646 mmHg 89%
    19:00 +21°C° 0.4 mm 1 mps 646 mmHg 91%
    20:00 +20°C° 0.4 mm 1 mps 647 mmHg 92%
    21:00 +20°C° 0.4 mm 1 mps 647 mmHg 93%
    22:00 +20°C° 0.4 mm 1 mps 647 mmHg 94%
    23:00 +20°C° 0.4 mm 1 mps 647 mmHg 95%

    18 December, Tuesday

    Time Temperature Precipitation Wind Pressure Humidity
    00:00 +19°C° 1.1 mm 1 mps 647 mmHg 95%
    01:00 +18°C° 1.1 mm 2 mps 646 mmHg 95%
    02:00 +18°C° 1.1 mm 2 mps 646 mmHg 95%
    03:00 +18°C° 1 mm 2 mps 646 mmHg 96%
    04:00 +19°C° 1 mm 1 mps 646 mmHg 96%
    05:00 +19°C° 1 mm 1 mps 647 mmHg 96%
    06:00 +19°C° 0.7 mm 1 mps 647 mmHg 96%
    07:00 +19°C° 0.7 mm 1 mps 648 mmHg 95%
    08:00 +19°C° 0.7 mm 1 mps 648 mmHg 94%
    09:00 +19°C° 0.6 mm 2 mps 648 mmHg 92%
    10:00 +20°C° 0.6 mm 2 mps 648 mmHg 90%
    11:00 +20°C° 0.6 mm 2 mps 648 mmHg 87%
    12:00 +20°C° 0.5 mm 2 mps 647 mmHg 87%
    13:00 +20°C° 0.5 mm 2 mps 647 mmHg 86%
    14:00 +20°C° 0.5 mm 2 mps 646 mmHg 85%
    15:00 +20°C° 0.2 mm 2 mps 646 mmHg 86%
    16:00 +21°C° 0.2 mm 1 mps 645 mmHg 88%
    17:00 +21°C° 0.2 mm 1 mps 645 mmHg 89%
    18:00 +18°C° 0.1 mm 0 mps 645 mmHg 90%
    19:00 +18°C° 0.1 mm 0 mps 645 mmHg 92%
    20:00 +17°C° 0.1 mm 0 mps 646 mmHg 93%
    21:00 +17°C° 0 mm 0 mps 646 mmHg 93%
    22:00 +16°C° 0 mm 0 mps 646 mmHg 94%
    23:00 +18°C° 0 mm 1 mps 646 mmHg 94%

    19 December, Wednesday

    Time Temperature Precipitation Wind Pressure Humidity
    00:00 +18°C° 0.1 mm 1 mps 646 mmHg 95%
    01:00 +18°C° 0.1 mm 1 mps 645 mmHg 95%
    02:00 +18°C° 0.1 mm 1 mps 645 mmHg 96%
    03:00 +18°C° 0.1 mm 1 mps 645 mmHg 96%
    04:00 +18°C° 0.1 mm 1 mps 646 mmHg 96%
    05:00 +19°C° 0.1 mm 1 mps 646 mmHg 96%
    06:00 +19°C° 0.2 mm 1 mps 646 mmHg 95%
    07:00 +20°C° 0.2 mm 1 mps 647 mmHg 93%
    08:00 +20°C° 0.2 mm 2 mps 647 mmHg 91%
    09:00 +20°C° 0.6 mm 2 mps 647 mmHg 89%
    10:00 +20°C° 0.6 mm 2 mps 647 mmHg 87%
    11:00 +21°C° 0.6 mm 2 mps 646 mmHg 86%
    12:00 +21°C° 0.5 mm 2 mps 646 mmHg 84%
    13:00 +23°C° 0.5 mm 2 mps 645 mmHg 83%
    14:00 +23°C° 0.5 mm 2 mps 645 mmHg 82%
    15:00 +23°C° 0.5 mm 2 mps 644 mmHg 83%
    16:00 +21°C° 0.5 mm 2 mps 644 mmHg 85%
    17:00 +22°C° 0.5 mm 1 mps 644 mmHg 87%
    18:00 +21°C° 0.5 mm 1 mps 645 mmHg 90%
    19:00 +21°C° 0.5 mm 1 mps 645 mmHg 92%
    20:00 +20°C° 0.5 mm 1 mps 646 mmHg 95%
    21:00 +20°C° 1.1 mm 1 mps 646 mmHg 95%
    22:00 +20°C° 1.1 mm 1 mps 646 mmHg 96%
    23:00 +20°C° 1.1 mm 1 mps 646 mmHg 96%
    Show more